Hourly Weather Sobiemirowo

Today, 19 June, Saturday

Time Temperature Precipitation Wind Pressure Humidity
00:00 +21°C° 0 mm 4 mps 753 mmHg 67%
01:00 +21°C° 0 mm 4 mps 753 mmHg 69%
02:00 +21°C° 0 mm 4 mps 753 mmHg 71%
03:00 +21°C° 0 mm 3 mps 753 mmHg 73%
04:00 +20°C° 0 mm 3 mps 753 mmHg 75%
05:00 +22°C° 0 mm 4 mps 753 mmHg 70%
06:00 +25°C° 0 mm 4 mps 753 mmHg 66%
07:00 +26°C° 0 mm 4 mps 753 mmHg 62%
08:00 +28°C° 0 mm 4 mps 753 mmHg 55%
09:00 +30°C° 0 mm 4 mps 753 mmHg 48%
10:00 +33°C° 0 mm 5 mps 753 mmHg 41%
11:00 +33°C° 0 mm 5 mps 753 mmHg 38%
12:00 +34°C° 0 mm 4 mps 752 mmHg 35%
13:00 +34°C° 0 mm 4 mps 752 mmHg 32%
14:00 +35°C° 0 mm 3 mps 752 mmHg 33%
15:00 +35°C° 0 mm 3 mps 751 mmHg 33%
16:00 +35°C° 0 mm 2 mps 751 mmHg 34%
17:00 +32°C° 0 mm 2 mps 751 mmHg 42%
18:00 +30°C° 0 mm 3 mps 751 mmHg 51%
19:00 +28°C° 0 mm 3 mps 751 mmHg 59%
20:00 +25°C° 0 mm 3 mps 752 mmHg 66%
21:00 +23°C° 0 mm 2 mps 752 mmHg 73%
22:00 +20°C° 0 mm 2 mps 752 mmHg 80%
23:00 +20°C° 0 mm 2 mps 752 mmHg 80%

Tomorrow, 20 June, Sunday

Time Temperature Precipitation Wind Pressure Humidity
00:00 +20°C° 0 mm 2 mps 752 mmHg 80%
01:00 +20°C° 0 mm 2 mps 752 mmHg 80%
02:00 +20°C° 0 mm 2 mps 752 mmHg 83%
03:00 +19°C° 0 mm 2 mps 751 mmHg 86%
04:00 +19°C° 0 mm 2 mps 751 mmHg 89%
05:00 +21°C° 0 mm 3 mps 751 mmHg 82%
06:00 +24°C° 0 mm 3 mps 751 mmHg 75%
07:00 +26°C° 0 mm 4 mps 751 mmHg 69%
08:00 +28°C° 0 mm 5 mps 750 mmHg 63%
09:00 +29°C° 0 mm 5 mps 750 mmHg 57%
10:00 +32°C° 0 mm 6 mps 750 mmHg 51%
11:00 +33°C° 0 mm 6 mps 750 mmHg 47%
12:00 +34°C° 0 mm 6 mps 749 mmHg 44%
13:00 +35°C° 0 mm 6 mps 749 mmHg 40%
14:00 +34°C° 0 mm 6 mps 749 mmHg 42%
15:00 +33°C° 0 mm 5 mps 748 mmHg 44%
16:00 +33°C° 0 mm 5 mps 748 mmHg 46%
17:00 +30°C° 0.3 mm 4 mps 748 mmHg 55%
18:00 +28°C° 0.3 mm 3 mps 748 mmHg 63%
19:00 +26°C° 0.3 mm 2 mps 749 mmHg 72%
20:00 +25°C° 0.3 mm 2 mps 749 mmHg 76%
21:00 +24°C° 0.3 mm 2 mps 749 mmHg 79%
22:00 +23°C° 0.3 mm 2 mps 749 mmHg 83%
23:00 +23°C° 0 mm 2 mps 749 mmHg 85%

Day after tomorrow, 21 June, Monday

Time Temperature Precipitation Wind Pressure Humidity
00:00 +21°C° 0 mm 2 mps 749 mmHg 87%
01:00 +20°C° 0 mm 2 mps 748 mmHg 88%
02:00 +20°C° 0 mm 2 mps 748 mmHg 89%
03:00 +20°C° 0 mm 2 mps 748 mmHg 90%
04:00 +19°C° 0 mm 2 mps 748 mmHg 91%
05:00 +21°C° 0.2 mm 3 mps 748 mmHg 87%
06:00 +22°C° 0.2 mm 3 mps 748 mmHg 82%
07:00 +24°C° 0.2 mm 3 mps 748 mmHg 78%
08:00 +27°C° 0 mm 4 mps 748 mmHg 67%
09:00 +29°C° 0 mm 6 mps 747 mmHg 57%
10:00 +32°C° 0 mm 7 mps 747 mmHg 47%
11:00 +33°C° 0 mm 6 mps 747 mmHg 44%
12:00 +34°C° 0 mm 6 mps 747 mmHg 42%
13:00 +35°C° 0 mm 6 mps 747 mmHg 39%
14:00 +34°C° 0.1 mm 5 mps 746 mmHg 41%
15:00 +34°C° 0.1 mm 4 mps 746 mmHg 42%
16:00 +34°C° 0.1 mm 3 mps 746 mmHg 44%
17:00 +28°C° 4.2 mm 3 mps 747 mmHg 61%
18:00 +23°C° 4.2 mm 4 mps 748 mmHg 79%
19:00 +19°C° 4.2 mm 4 mps 749 mmHg 96%
20:00 +18°C° 2.8 mm 4 mps 749 mmHg 96%
21:00 +18°C° 2.8 mm 4 mps 749 mmHg 95%
22:00 +16°C° 2.8 mm 5 mps 749 mmHg 95%
23:00 +17°C° 0 mm 4 mps 749 mmHg 95%

22 June, Tuesday

Time Temperature Precipitation Wind Pressure Humidity
00:00 +16°C° 0 mm 2 mps 749 mmHg 95%
01:00 +16°C° 0 mm 1 mps 749 mmHg 95%
02:00 +16°C° 0 mm 2 mps 749 mmHg 95%
03:00 +15°C° 0 mm 2 mps 749 mmHg 96%
04:00 +15°C° 0 mm 2 mps 750 mmHg 96%
05:00 +16°C° 0 mm 3 mps 750 mmHg 92%
06:00 +17°C° 0 mm 3 mps 750 mmHg 88%
07:00 +18°C° 0 mm 3 mps 750 mmHg 83%
08:00 +20°C° 0 mm 3 mps 751 mmHg 76%
09:00 +21°C° 0 mm 3 mps 751 mmHg 70%
10:00 +24°C° 0 mm 2 mps 751 mmHg 63%
11:00 +24°C° 0 mm 3 mps 751 mmHg 60%
12:00 +25°C° 0 mm 3 mps 751 mmHg 58%
13:00 +26°C° 0 mm 3 mps 751 mmHg 56%
14:00 +26°C° 0 mm 3 mps 752 mmHg 57%
15:00 +26°C° 0 mm 3 mps 752 mmHg 58%
16:00 +25°C° 0 mm 4 mps 752 mmHg 59%
17:00 +22°C° 0 mm 4 mps 752 mmHg 66%
18:00 +21°C° 0 mm 4 mps 752 mmHg 72%
19:00 +19°C° 0 mm 4 mps 753 mmHg 79%
20:00 +17°C° 0 mm 3 mps 753 mmHg 84%
21:00 +16°C° 0 mm 3 mps 753 mmHg 89%
22:00 +15°C° 0 mm 2 mps 753 mmHg 94%
23:00 +14°C° 0 mm 2 mps 753 mmHg 93%

23 June, Wednesday

Time Temperature Precipitation Wind Pressure Humidity
00:00 +14°C° 0 mm 2 mps 754 mmHg 92%
01:00 +14°C° 0 mm 2 mps 754 mmHg 92%
02:00 +14°C° 0 mm 2 mps 754 mmHg 91%
03:00 +14°C° 0 mm 2 mps 754 mmHg 91%
04:00 +13°C° 0 mm 1 mps 754 mmHg 91%
05:00 +15°C° 0 mm 2 mps 754 mmHg 84%
06:00 +17°C° 0 mm 2 mps 754 mmHg 77%
07:00 +18°C° 0 mm 2 mps 754 mmHg 70%
08:00 +19°C° 0 mm 3 mps 754 mmHg 67%
09:00 +20°C° 0 mm 3 mps 754 mmHg 63%
10:00 +22°C° 0 mm 3 mps 754 mmHg 59%
11:00 +22°C° 0 mm 4 mps 754 mmHg 59%
12:00 +22°C° 0 mm 4 mps 755 mmHg 59%
13:00 +23°C° 0 mm 4 mps 755 mmHg 59%
14:00 +21°C° 0.3 mm 5 mps 755 mmHg 68%
15:00 +19°C° 0.3 mm 5 mps 755 mmHg 77%
16:00 +16°C° 0.3 mm 5 mps 756 mmHg 87%
17:00 +16°C° 0.3 mm 5 mps 756 mmHg 89%
18:00 +15°C° 0.3 mm 4 mps 756 mmHg 92%
19:00 +15°C° 0.3 mm 4 mps 756 mmHg 94%
20:00 +16°C° 0.1 mm 3 mps 756 mmHg 95%
21:00 +14°C° 0.1 mm 3 mps 756 mmHg 96%
22:00 +15°C° 0.1 mm 2 mps 756 mmHg 96%
23:00 +15°C° 0 mm 2 mps 756 mmHg 97%

24 June, Thursday

Time Temperature Precipitation Wind Pressure Humidity
00:00 +14°C° 0 mm 2 mps 756 mmHg 97%
01:00 +14°C° 0 mm 2 mps 756 mmHg 97%
02:00 +14°C° 0 mm 2 mps 756 mmHg 97%
03:00 +13°C° 0 mm 1 mps 756 mmHg 97%
04:00 +13°C° 0 mm 1 mps 756 mmHg 97%
05:00 +15°C° 0 mm 2 mps 756 mmHg 93%
06:00 +16°C° 0 mm 2 mps 756 mmHg 89%
07:00 +18°C° 0 mm 2 mps 756 mmHg 86%
08:00 +19°C° 0 mm 2 mps 756 mmHg 78%
09:00 +20°C° 0 mm 2 mps 756 mmHg 70%
10:00 +23°C° 0 mm 2 mps 756 mmHg 63%
11:00 +22°C° 0 mm 3 mps 756 mmHg 63%
12:00 +21°C° 0 mm 3 mps 756 mmHg 64%
13:00 +21°C° 0 mm 3 mps 756 mmHg 65%
14:00 +20°C° 0.1 mm 3 mps 756 mmHg 71%
15:00 +19°C° 0.1 mm 3 mps 756 mmHg 77%
16:00 +18°C° 0.1 mm 3 mps 755 mmHg 84%
17:00 +17°C° 0 mm 3 mps 755 mmHg 87%
18:00 +17°C° 0 mm 3 mps 755 mmHg 89%
19:00 +16°C° 0 mm 2 mps 755 mmHg 92%
20:00 +16°C° 0.2 mm 2 mps 755 mmHg 93%
21:00 +16°C° 0.2 mm 2 mps 755 mmHg 93%
22:00 +16°C° 0.2 mm 2 mps 755 mmHg 94%
23:00 +15°C° 0.8 mm 2 mps 755 mmHg 94%
Show more